| time (UTC) | temp F | wind direction | speed knots | gust knots | rain 1hr in | rain 24hr in | rain mn in | humidity % | barometer mb |
| 20260504081855 | 62 | 317 | 3.5 | 0.0 | 0.00 | 0.00 | 0.00 | 46 | 1019.3 |
| 20260504080845 | 63 | 277 | 2.6 | 0.0 | 0.00 | 0.00 | 0.00 | 47 | 1019.2 |
| 20260504045829 | 54 | 20 | 0.9 | 0.0 | 0.00 | 0.00 | 0.00 | 62 | 1018.6 |
| 20260504044848 | 54 | 15 | 0.9 | 0.0 | 0.00 | 0.00 | 0.00 | 62 | 1018.5 |
| 20260504043837 | 54 | 101 | 0.9 | 0.0 | 0.00 | 0.00 | 0.00 | 63 | 1018.4 |
| 20260504042835 | 53 | 113 | 0.9 | 0.0 | 0.00 | 0.00 | 0.00 | 64 | 1018.5 |
| 20260504041840 | 52 | 105 | 0.9 | 0.0 | 0.00 | 0.00 | 0.00 | 66 | 1018.4 |
| 20260504040832 | 52 | 105 | 0.9 | 0.0 | 0.00 | 0.00 | 0.00 | 66 | 1018.3 |
| 20260504035829 | 52 | 355 | 0.0 | 0.0 | 0.00 | 0.00 | 0.00 | 65 | 1018.3 |
| 20260504034845 | 52 | 355 | 0.9 | 0.0 | 0.00 | 0.00 | 0.00 | 65 | 1018.2 |
| 20260504033835 | 52 | 355 | 0.9 | 0.0 | 0.00 | 0.00 | 0.00 | 65 | 1018.2 |
| 20260504032835 | 52 | 168 | 0.0 | 0.0 | 0.00 | 0.00 | 0.00 | 64 | 1018.2 |
| 20260504031836 | 52 | 168 | 0.0 | 0.0 | 0.00 | 0.00 | 0.00 | 65 | 1018.1 |
| 20260504030826 | 52 | 168 | 0.0 | 0.0 | 0.00 | 0.00 | 0.00 | 65 | 1018.0 |
| 20260504025843 | 52 | 168 | 0.0 | 0.0 | 0.00 | 0.00 | 0.00 | 64 | 1018.1 |
| 20260504024841 | 52 | 168 | 0.0 | 0.0 | 0.00 | 0.00 | 0.00 | 65 | 1018.1 |
| 20260504023829 | 52 | 112 | 0.0 | 0.0 | 0.00 | 0.00 | 0.00 | 64 | 1018.1 |
| 20260504022831 | 52 | 112 | 0.0 | 0.0 | 0.00 | 0.00 | 0.00 | 63 | 1017.9 |
| 20260504021830 | 52 | 112 | 0.9 | 0.0 | 0.00 | 0.00 | 0.00 | 63 | 1018.0 |
| 20260504020850 | 53 | 154 | 0.0 | 0.0 | 0.00 | 0.00 | 0.00 | 62 | 1018.0 |
| 20260504015844 | 53 | 159 | 0.9 | 0.0 | 0.00 | 0.00 | 0.00 | 62 | 1018.1 |
| 20260504014842 | 53 | 116 | 0.9 | 0.0 | 0.00 | 0.00 | 0.00 | 62 | 1018.1 |
| 20260504013838 | 53 | 116 | 0.0 | 0.0 | 0.00 | 0.00 | 0.00 | 61 | 1018.1 |
| 20260504012842 | 53 | 116 | 0.9 | 0.0 | 0.00 | 0.00 | 0.00 | 61 | 1018.0 |
| 20260504011843 | 53 | 95 | 0.9 | 0.0 | 0.00 | 0.00 | 0.00 | 61 | 1018.1 |
| 20260504010836 | 52 | 121 | 0.9 | 0.0 | 0.00 | 0.00 | 0.00 | 61 | 1018.0 |
| 20260504005831 | 52 | 109 | 0.0 | 0.0 | 0.00 | 0.00 | 0.00 | 61 | 1018.0 |
| 20260504004830 | 53 | 128 | 0.9 | 0.0 | 0.00 | 0.00 | 0.00 | 61 | 1018.0 |
| 20260504003840 | 53 | 109 | 0.9 | 0.0 | 0.00 | 0.00 | 0.00 | 61 | 1018.1 |
| 20260504002839 | 53 | 112 | 0.0 | 0.0 | 0.00 | 0.00 | 0.00 | 61 | 1018.0 |
| 20260504001837 | 52 | 127 | 0.0 | 0.0 | 0.00 | 0.00 | 0.00 | 61 | 1018.0 |
| 20260504000830 | 53 | 115 | 0.9 | 0.0 | 0.00 | 0.00 | 0.00 | 61 | 1018.1 |
| 20260503235828 | 53 | 112 | 0.9 | 0.0 | 0.00 | 0.00 | 0.00 | 59 | 1018.1 |
| 20260503234845 | 53 | 19 | 1.7 | 0.0 | 0.00 | 0.00 | 0.00 | 59 | 1018.1 |
| 20260503233835 | 53 | 33 | 1.7 | 0.0 | 0.00 | 0.00 | 0.00 | 59 | 1018.1 |
| 20260503232840 | 53 | 50 | 0.0 | 0.0 | 0.00 | 0.00 | 0.00 | 60 | 1018.2 |
| 20260503231839 | 53 | 286 | 0.0 | 0.0 | 0.00 | 0.00 | 0.00 | 60 | 1018.2 |
| 20260503230827 | 53 | 306 | 0.0 | 0.0 | 0.00 | 0.00 | 0.00 | 60 | 1018.3 |
| 20260503225844 | 53 | 306 | 0.0 | 0.0 | 0.00 | 0.00 | 0.00 | 60 | 1018.2 |
| 20260503224842 | 53 | 306 | 0.9 | 0.0 | 0.00 | 0.00 | 0.00 | 60 | 1018.1 |
| 20260503223836 | 53 | 316 | 2.6 | 0.0 | 0.00 | 0.00 | 0.00 | 59 | 1018.1 |
| 20260503222836 | 53 | 350 | 2.6 | 0.0 | 0.00 | 0.00 | 0.00 | 59 | 1018.0 |
| 20260503221835 | 53 | 360 | 3.5 | 0.0 | 0.00 | 0.00 | 0.00 | 60 | 1018.1 |
| 20260503220829 | 53 | 22 | 2.6 | 0.0 | 0.00 | 0.00 | 0.00 | 60 | 1018.2 |
| 20260503215842 | 53 | 15 | 2.6 | 0.0 | 0.00 | 0.00 | 0.00 | 60 | 1018.2 |
| 20260503214838 | 53 | 19 | 2.6 | 0.0 | 0.00 | 0.00 | 0.00 | 60 | 1018.3 |
| 20260503213829 | 54 | 360 | 0.9 | 0.0 | 0.00 | 0.00 | 0.00 | 59 | 1018.3 |
| 20260503212828 | 54 | 339 | 0.9 | 0.0 | 0.00 | 0.00 | 0.00 | 59 | 1018.3 |
| 20260503211830 | 54 | 327 | 1.7 | 0.0 | 0.00 | 0.00 | 0.00 | 59 | 1018.3 |
| 20260503210849 | 54 | 17 | 1.7 | 0.0 | 0.00 | 0.00 | 0.00 | 59 | 1018.2 |
| 20260503205834 | 54 | 338 | 2.6 | 0.0 | 0.00 | 0.00 | 0.00 | 59 | 1018.4 |
| 20260503204831 | 54 | 308 | 3.5 | 0.0 | 0.00 | 0.00 | 0.06 | 59 | 1018.4 |
| 20260503203854 | 54 | 350 | 4.3 | 0.0 | 0.00 | 0.00 | 0.06 | 59 | 1018.4 |
| 20260503202845 | 54 | 320 | 4.3 | 0.0 | 0.00 | 0.00 | 0.06 | 59 | 1018.4 |
| 20260503201829 | 54 | 360 | 5.2 | 0.0 | 0.00 | 0.00 | 0.06 | 59 | 1018.4 |
| 20260503200851 | 54 | 323 | 4.3 | 0.0 | 0.00 | 0.00 | 0.06 | 59 | 1018.4 |
| 20260503195834 | 54 | 332 | 4.3 | 0.0 | 0.00 | 0.00 | 0.06 | 59 | 1018.4 |
| 20260503194829 | 55 | 332 | 4.3 | 0.0 | 0.00 | 0.00 | 0.06 | 59 | 1018.4 |
| 20260503193852 | 55 | 335 | 6.1 | 0.0 | 0.00 | 0.00 | 0.06 | 58 | 1018.4 |
| 20260503192826 | 55 | 313 | 6.1 | 0.0 | 0.00 | 0.00 | 0.06 | 58 | 1018.5 |
| 20260503191828 | 55 | 348 | 7.0 | 0.0 | 0.00 | 0.00 | 0.06 | 58 | 1018.4 |
| 20260503190850 | 55 | 5 | 5.2 | 0.0 | 0.00 | 0.00 | 0.06 | 57 | 1018.3 |
| 20260503185836 | 55 | 316 | 7.0 | 0.0 | 0.00 | 0.00 | 0.06 | 57 | 1018.2 |
| 20260503184833 | 55 | 330 | 5.2 | 0.0 | 0.00 | 0.00 | 0.06 | 56 | 1018.1 |
| 20260503183825 | 55 | 338 | 5.2 | 0.0 | 0.00 | 0.00 | 0.06 | 57 | 1018.0 |
| 20260503182826 | 55 | 327 | 7.0 | 0.0 | 0.00 | 0.00 | 0.06 | 57 | 1017.9 |
| 20260503181843 | 55 | 318 | 5.2 | 0.0 | 0.00 | 0.00 | 0.06 | 57 | 1017.7 |
| 20260503180846 | 55 | 5 | 6.1 | 0.0 | 0.00 | 0.00 | 0.06 | 57 | 1017.5 |
| 20260503175831 | 55 | 339 | 7.0 | 0.0 | 0.00 | 0.00 | 0.06 | 57 | 1017.5 |
| 20260503174829 | 56 | 319 | 5.2 | 0.0 | 0.00 | 0.00 | 0.06 | 56 | 1017.3 |
| 20260503173851 | 56 | 360 | 6.1 | 0.0 | 0.00 | 0.00 | 0.06 | 56 | 1017.3 |
| 20260503172844 | 56 | 351 | 4.3 | 0.0 | 0.00 | 0.00 | 0.06 | 55 | 1017.2 |
| 20260503171826 | 56 | 33 | 6.1 | 0.0 | 0.00 | 0.00 | 0.06 | 55 | 1017.0 |
| 20260503170846 | 56 | 326 | 6.1 | 0.0 | 0.00 | 0.00 | 0.06 | 55 | 1017.1 |
| 20260503150834 | 59 | 42 | 7.8 | 0.0 | 0.00 | 0.00 | 0.06 | 50 | 1016.0 |
| 20260503130844 | 59 | 5 | 11.3 | 0.0 | 0.00 | 0.00 | 0.06 | 50 | 1015.9 |